カタログに戻る

STARLINK-36743

運用中通信VLEO
NORAD 67876·PAYLOAD·🇺🇸 United States

打ち上げ Feb 20, 2026 から Vandenberg Space Force Base

Loading…

次のパス (今後24時間)

TLE

最新Source: CelesTrak SupGP

元期: Sep 15, 2026, 03:20 UTC

1 67876C 26034AC  26258.13937500  .00002644  00000+0  78069-4 0  2587
2 67876  53.1601  42.6753 0001120  75.7440 287.3448 15.34408528    17

AllMySatでSTARLINK-36743をリアルタイム追跡

Download on the App Store